sat.trackr.live / text

‹ back to catalog

STARLINK-33832

NORAD 63637 · 2025-083D

PAYLOAD ACTIVE UNKNOWN

§ Identity

Operator
Country
US
Launch date
2025-04-25
Launch site
AFETR
Launch vehicle
Mass (kg)
RCS (m²)

Purposes: comms

External: N2YO · Heavens-Above · Gunter

§ Orbital elements

Epoch: 2026-09-20T07:12:17.947872Z

Period
94.27 min
Inclination
43.0031°
Eccentricity
0.0001181
Mean motion
15.27590769 rev/d
Perigee alt
482.2 km
Apogee alt
483.8 km
Semi-major
6,861.2 km
B*
5.2783e-4
RAAN
345.8423°
Arg perigee
259.2540°
Mean anomaly
100.8179°
Rev number
7,983

§ Raw data

STARLINK-338321 63637U 25083D   26263.30020773  .00014295  00000+0  52783-3 0  99922 63637  43.0031 345.8423 0001181 259.2540 100.8179 15.27590769 79839

JSON: /api/v1/satellites/63637 · /tle

For live sub-satellite position, see the globe view (requires WebGL).

§ Visibility from observer

Set your observer location to see the next 7 days of passes ≥ 10°. The values pass through the URL so the page stays shareable.

No JS? Fill the form by hand. The geolocation button needs JavaScript.